Theta_e
291 290 290 289 289 289 290 290 292 294 296 298 300 302 303 305 306 308 308 309 311 312 312 312 313 313 313 313 313 312 312 312 313 312 312 311 310 309 308 308 308 307 308 310 310 309 308 306 304 304 305 304 302 299 298 296 295 295 294 294 293 293 293 292 291 291 291 291 291 291 291 291 291 292 291 291 292 292 292 292 292 292 292 291 291
290 290 289 289 288 288 288 289 290 291 293 295 297 298 299 301 303 304 305 307 308 309 309 310 310 311 312 313 312 312 312 312 312 312 312 311 310 308 308 307 307 307 308 309 310 308 307 306 303 304 306 305 303 301 299 297 295 295 294 294 293 293 293 293 292 291 291 291 291 291 291 291 291 291 291 291 291 291 292 292 292 291 291 291 291
289 289 288 288 288 287 287 287 288 289 290 292 294 296 297 298 299 300 301 303 305 306 307 308 308 309 310 311 312 312 311 311 311 311 311 310 309 307 306 306 305 306 307 308 309 307 305 305 303 304 305 305 304 302 300 297 296 295 295 294 294 293 293 293 292 292 291 291 291 291 291 291 291 290 291 291 291 291 291 291 291 291 291 291 291
288 288 287 287 287 287 287 287 287 287 288 289 290 292 294 295 295 297 298 299 302 303 304 305 306 308 309 309 310 310 310 310 309 309 309 309 308 307 307 307 306 306 306 307 308 306 303 302 303 303 305 305 305 303 301 299 298 297 295 295 294 293 292 292 292 292 292 291 291 291 291 290 290 290 291 291 291 291 291 291 291 291 291 291 291
288 287 287 287 286 286 286 286 286 286 286 286 287 288 289 290 292 293 295 296 298 300 301 303 304 306 308 308 308 308 308 308 308 308 308 308 308 308 308 308 307 307 307 307 306 305 302 300 301 303 305 305 304 304 302 301 300 299 297 295 295 294 293 293 292 292 292 291 291 291 291 290 290 291 291 291 291 291 291 291 291 291 291 291 291
288 288 287 287 286 286 286 286 286 286 286 286 286 286 286 287 288 290 291 293 295 296 298 300 302 303 304 305 305 305 305 305 305 305 305 306 307 307 307 307 307 306 306 307 306 305 303 301 299 301 304 304 304 303 302 301 300 299 298 297 295 295 294 293 293 293 292 291 291 291 291 291 291 291 291 291 291 291 291 291 291 291 291 291 291
289 288 287 287 286 286 286 286 286 286 286 286 286 286 286 286 286 287 288 289 291 293 295 297 299 300 301 301 301 302 302 302 302 303 303 303 304 305 305 305 305 305 305 306 305 304 304 303 300 299 301 302 302 302 301 300 300 300 299 299 297 295 294 293 293 293 292 291 291 291 291 291 292 292 292 292 291 290 290 290 291 291 291 291 291
288 288 287 286 286 286 286 285 285 285 286 286 286 286 286 286 286 286 286 286 287 289 291 293 295 297 298 298 299 300 300 301 301 301 302 302 302 302 302 303 303 304 304 305 304 303 303 303 301 297 297 299 300 300 300 299 300 299 299 298 298 296 295 294 293 293 293 292 291 291 291 291 292 292 292 292 292 292 291 290 290 291 290 291 291
288 288 287 286 286 286 286 285 285 285 285 285 285 285 286 286 286 286 286 286 286 286 287 289 290 292 294 295 297 298 298 299 300 300 301 301 301 301 301 301 301 302 303 303 303 303 303 303 301 298 297 297 298 298 298 298 297 297 298 297 297 297 296 295 294 293 293 293 292 291 291 291 291 292 291 292 292 292 292 291 291 291 290 290 290
287 287 287 287 286 286 285 285 285 284 284 284 284 284 285 285 286 286 286 286 285 285 285 286 287 288 289 291 293 294 296 297 299 299 300 300 300 300 300 300 300 300 301 301 302 302 302 301 301 300 299 298 297 297 297 297 297 296 296 296 296 297 297 295 294 293 293 293 293 292 291 291 291 291 291 291 291 291 292 292 292 292 291 291 291
287 287 287 287 286 286 285 285 285 284 284 284 284 284 284 284 285 285 285 286 286 285 285 285 285 286 286 287 288 289 291 293 296 297 298 299 299 299 299 299 299 298 298 299 300 300 300 300 300 300 299 298 297 297 297 297 298 296 295 295 295 295 296 296 295 294 293 293 293 292 292 291 291 291 291 291 291 291 291 291 292 292 292 292 291
287 287 287 287 286 286 286 285 285 284 284 284 284 284 284 284 284 284 284 285 285 286 285 285 284 284 285 285 285 286 287 288 290 292 294 296 298 298 299 298 298 298 298 298 298 299 299 299 299 300 299 298 298 298 297 297 298 297 295 294 294 294 295 295 295 294 293 293 293 293 292 292 291 291 291 292 291 291 292 292 292 291 291 291 290
286 286 287 287 287 286 286 285 285 284 284 284 283 283 283 284 284 284 284 283 283 284 285 285 284 284 284 284 284 284 284 285 286 287 289 291 293 295 296 297 297 298 297 297 297 297 298 298 299 299 299 299 298 298 297 296 297 297 296 294 294 294 294 294 294 294 294 294 294 293 293 292 292 291 291 291 291 291 291 291 291 291 291 291 290
286 285 286 286 287 286 286 285 284 284 284 283 283 283 283 283 283 284 284 284 283 283 283 283 284 284 284 283 283 283 283 283 283 284 286 287 288 290 292 294 295 296 297 297 297 296 296 297 298 298 299 299 298 298 297 296 296 297 297 295 294 294 294 293 293 294 294 294 294 294 293 293 292 292 291 291 291 291 291 291 291 290 290 290 290
286 285 285 285 286 286 286 285 284 284 283 283 283 282 282 282 281 282 282 283 284 284 283 283 283 283 283 283 283 283 282 282 282 283 283 284 285 287 288 290 291 293 294 295 296 296 295 296 296 297 298 298 298 297 297 296 296 296 297 297 295 294 293 293 293 293 293 293 293 293 294 293 293 292 291 291 291 291 291 291 291 290 289 288 288
286 285 285 285 285 286 286 285 285 283 283 283 282 282 282 281 281 280 280 281 282 282 283 283 283 282 282 282 283 283 282 282 282 282 282 283 283 284 285 287 288 289 291 292 294 295 295 295 295 295 296 297 298 297 297 297 296 296 297 297 296 294 293 293 293 293 293 293 292 293 293 293 293 292 292 291 291 291 291 291 291 290 289 288 287
286 285 285 285 285 285 285 285 285 284 283 283 282 282 282 281 281 280 280 280 280 280 281 282 283 283 283 282 282 282 282 282 282 282 282 282 282 282 283 284 285 287 288 289 290 292 293 294 294 294 294 295 296 297 297 297 296 296 296 296 296 295 294 294 294 293 293 292 292 292 292 293 293 292 292 291 291 291 291 291 291 291 290 290 289
285 285 285 285 285 284 285 285 285 284 283 282 282 282 282 281 281 281 280 280 280 280 279 280 280 281 282 282 282 281 281 281 281 281 281 281 281 281 282 282 283 284 285 287 288 289 291 292 293 293 294 294 294 295 295 296 296 296 296 296 296 295 294 295 294 293 293 292 292 292 292 292 292 292 291 291 291 291 291 290 290 290 290 290 290
284 284 284 284 284 284 285 285 284 284 283 282 282 282 282 281 281 281 280 280 280 280 279 279 279 279 280 281 282 282 281 280 280 280 281 281 281 281 281 281 281 282 283 285 286 287 288 289 290 292 292 293 293 293 294 295 295 295 296 296 296 296 295 295 295 294 294 293 292 292 292 292 292 291 291 291 291 291 290 290 290 290 290 290 290
284 283 283 283 284 284 284 284 284 284 283 283 282 282 281 281 281 281 281 280 280 280 280 279 279 279 279 279 280 281 282 281 281 280 280 280 280 280 280 280 280 281 282 283 284 285 286 287 288 289 290 291 291 292 292 293 294 294 295 295 296 295 295 295 295 295 294 294 293 292 292 292 292 291 291 291 291 290 290 290 290 290 290 290 290
283 283 283 283 283 283 284 284 284 284 283 283 282 282 281 281 281 281 281 281 280 280 280 280 279 279 279 279 278 279 280 281 281 281 280 279 279 279 279 279 279 280 281 281 282 283 284 285 287 287 288 289 289 290 290 291 292 293 293 294 294 294 294 294 295 295 294 294 293 293 292 292 292 291 291 291 291 291 290 290 290 290 290 290 290
284 283 283 283 282 283 283 284 284 283 283 283 282 282 282 281 281 281 280 280 280 280 280 280 279 279 279 279 278 278 278 278 279 280 280 279 278 278 278 279 279 279 280 281 281 282 283 284 285 286 287 287 288 288 289 289 290 291 292 293 293 293 293 293 293 294 294 294 294 294 293 293 292 292 291 291 291 291 290 290 290 290 290 290 290
283 283 283 283 282 282 282 283 283 283 283 282 282 282 281 281 281 281 280 280 280 280 280 279 279 279 279 279 278 278 278 277 277 278 279 279 279 278 277 278 278 279 279 280 280 281 282 282 283 284 285 286 287 287 288 288 289 289 290 291 292 292 292 293 292 292 293 293 293 293 294 294 293 292 292 291 291 291 291 290 290 290 290 290 289
283 283 283 283 282 282 282 282 283 283 282 282 282 281 281 281 280 280 280 280 280 280 279 279 279 279 279 279 278 278 278 277 277 277 277 277 278 278 277 277 277 278 278 279 279 280 280 281 282 283 284 285 285 286 286 287 287 288 288 289 290 291 291 292 292 292 292 292 292 292 293 293 293 292 292 291 291 291 291 290 290 290 290 289 289
283 283 283 282 282 282 282 282 282 282 282 282 281 281 281 280 280 280 280 280 280 279 279 279 279 279 279 278 278 278 278 277 277 277 276 276 276 276 277 277 276 277 277 278 279 279 279 280 281 281 282 283 284 285 285 286 287 287 287 288 288 289 290 290 291 292 292 292 292 292 292 292 292 292 291 291 291 291 291 290 290 290 290 289 289
283 282 282 282 282 282 282 282 282 282 282 281 281 281 281 280 280 280 279 279 279 279 279 279 279 278 278 278 278 278 278 277 277 277 276 276 275 275 276 276 276 276 276 276 277 278 278 279 280 280 281 282 283 284 284 285 286 286 287 287 287 288 288 289 290 290 291 291 292 292 292 292 292 292 292 292 292 292 291 291 290 290 289 289 289
282 282 282 282 282 282 281 281 281 281 281 281 281 281 281 280 280 280 279 279 279 279 279 278 278 278 278 278 278 278 278 277 277 277 276 276 275 275 275 275 275 275 275 275 276 277 278 278 279 280 280 281 282 282 283 284 285 286 286 287 287 287 287 288 288 289 289 290 290 291 291 292 291 291 291 292 292 292 291 291 290 290 289 289 288
281 281 281 281 281 281 281 281 281 280 280 280 280 280 280 280 280 280 279 279 279 279 278 278 278 278 278 278 278 278 278 277 277 277 276 276 275 275 275 274 274 275 275 275 275 276 277 277 278 279 280 280 281 281 282 283 284 285 285 286 286 287 287 287 287 288 288 288 289 289 290 291 291 291 291 291 291 291 291 290 290 290 289 288 288
281 281 280 280 280 280 280 280 280 280 280 280 280 280 280 280 280 279 279 279 279 278 278 278 278 277 277 277 277 277 277 277 277 277 276 276 275 274 274 274 274 274 274 274 275 275 276 277 277 278 279 280 280 281 281 282 282 283 284 285 286 286 286 287 287 287 287 287 288 288 288 289 290 290 290 290 290 290 290 290 290 289 289 288 287
280 280 280 280 280 280 280 279 279 279 279 279 279 279 279 279 279 279 279 279 278 278 277 277 277 277 276 276 276 276 277 277 277 277 276 275 275 274 274 274 273 274 274 274 274 275 276 276 277 277 278 279 280 280 281 281 281 282 283 284 284 285 285 286 286 286 287 287 287 287 287 288 288 289 289 290 290 290 290 290 290 290 289 288 287
279 279 279 280 279 279 279 279 279 278 278 278 278 278 278 278 278 278 278 278 278 277 277 277 277 276 276 275 275 275 276 276 277 276 275 275 274 274 274 273 273 273 273 273 274 274 275 276 276 277 277 278 279 280 280 280 281 281 282 283 283 284 284 285 285 285 286 286 286 286 287 287 287 287 288 288 289 289 289 289 289 289 289 289 288
279 279 279 279 279 279 279 278 278 277 277 277 277 277 277 277 277 277 277 277 277 277 277 276 276 276 275 274 274 274 275 276 276 275 275 274 274 274 273 273 273 273 273 273 273 274 274 275 276 277 277 278 279 279 280 280 280 281 281 282 282 283 283 284 284 285 285 285 285 285 286 286 286 287 287 288 288 288 289 289 289 289 289 289 288
279 279 279 279 279 278 278 277 276 276 276 276 276 277 277 277 277 277 277 277 277 276 276 276 275 274 274 274 274 274 275 275 275 275 275 274 274 273 273 272 272 272 272 273 273 274 274 275 275 276 277 278 278 279 279 279 280 280 281 281 281 282 283 283 284 284 284 285 285 285 285 285 285 286 286 287 287 288 288 288 288 288 288 288 288
278 278 278 278 278 277 277 276 275 275 275 275 276 276 276 276 276 276 276 276 276 276 275 275 274 273 273 273 273 274 275 275 275 274 274 274 273 273 272 272 272 272 272 273 273 273 274 274 275 276 276 277 277 278 278 279 279 279 280 280 280 281 281 282 283 283 284 284 284 284 284 284 285 285 285 286 286 287 287 287 287 287 288 288 287
278 278 278 278 277 277 276 276 275 275 275 274 274 274 274 274 275 275 275 274 274 274 274 273 273 273 272 272 273 273 274 275 274 274 273 273 272 272 271 271 271 271 272 272 273 273 274 274 275 275 275 275 276 277 277 278 278 278 279 279 279 280 280 281 282 283 283 284 284 284 284 284 284 284 284 285 285 286 286 286 286 286 287 287 287
278 278 277 277 276 276 276 275 275 275 274 273 273 273 273 273 273 273 273 273 273 272 272 272 272 272 272 272 273 273 274 274 273 273 272 272 271 271 270 270 270 271 271 272 272 273 273 274 275 274 274 274 274 275 276 277 277 278 278 278 278 279 279 280 281 282 282 283 283 283 283 283 283 283 283 284 284 284 285 285 285 285 286 286 286
277 277 277 276 275 275 275 275 274 274 273 273 273 273 273 272 272 271 271 272 271 271 271 271 271 271 272 272 272 272 273 273 272 272 271 271 270 270 269 270 270 270 271 271 272 272 273 274 274 273 273 273 273 274 275 276 276 277 277 277 278 278 279 280 280 281 281 282 282 283 283 283 283 283 283 283 283 283 283 284 284 284 284 285 285
277 276 276 275 275 275 274 274 274 273 273 273 273 273 272 271 271 271 271 271 270 270 270 271 271 271 271 271 271 271 271 271 271 271 271 270 269 269 269 269 270 270 270 271 271 272 273 273 272 271 272 272 272 273 275 276 276 276 276 277 277 278 279 279 279 279 280 280 281 282 282 282 282 282 282 282 282 282 282 283 283 283 284 284 284
276 275 275 275 274 274 274 274 273 273 273 273 272 272 271 271 271 270 270 270 269 269 270 270 270 270 270 270 270 270 270 270 270 270 270 269 269 269 269 269 269 269 270 270 271 271 272 272 271 271 272 273 273 274 275 275 276 276 276 276 277 277 278 278 279 279 279 280 280 281 281 281 281 281 282 282 281 281 281 282 282 282 283 283 283
275 274 274 274 274 274 273 273 272 272 272 272 271 271 270 270 270 269 269 269 269 269 269 269 269 269 269 270 270 269 269 269 269 269 269 269 269 269 269 269 269 269 269 270 270 271 271 271 272 272 273 273 273 274 274 275 275 276 276 276 276 276 277 277 278 278 279 279 280 280 281 281 281 281 281 281 281 280 280 281 281 281 282 282 282
274 274 273 273 273 273 272 272 271 271 271 271 270 270 270 269 269 268 268 268 269 269 269 269 269 269 269 269 269 269 268 268 268 268 268 268 268 268 268 269 269 269 269 270 271 271 271 271 272 272 272 273 273 273 274 274 274 275 276 276 276 276 276 277 278 278 279 279 279 280 280 280 280 280 281 281 281 280 280 280 280 280 281 281 281
273 273 273 273 272 272 271 271 271 270 270 270 270 269 269 268 268 268 268 268 268 268 268 269 269 269 269 269 269 268 268 268 268 267 267 268 268 268 268 268 268 269 269 270 270 270 270 270 271 271 271 272 272 272 273 274 274 274 275 275 275 276 276 277 277 278 278 279 279 279 280 280 279 279 280 280 280 280 279 279 279 279 279 280 280
272 272 272 272 271 271 270 270 270 269 269 269 269 268 268 267 267 268 268 268 268 268 268 268 268 268 268 268 268 268 268 267 267 267 267 267 268 268 268 268 268 268 268 268 269 269 269 270 270 270 270 271 271 271 273 273 273 274 274 275 275 275 275 276 277 277 277 278 278 278 279 279 279 279 279 279 280 279 278 278 278 278 278 278 279
272 272 271 271 270 270 270 269 269 269 269 269 268 267 267 267 267 267 267 268 268 268 268 268 268 268 268 268 268 267 267 267 267 266 266 266 267 267 267 267 267 267 267 268 268 269 269 270 270 270 270 270 270 271 272 273 273 273 274 274 275 275 275 276 276 277 277 277 277 277 278 278 278 278 278 278 279 279 278 278 278 277 277 277 278
271 271 270 270 269 269 269 268 268 268 268 267 267 267 267 267 267 267 267 267 267 267 267 267 267 267 267 267 267 268 267 267 266 266 266 266 266 266 266 266 266 267 267 268 268 269 270 270 269 269 270 270 270 271 272 272 272 273 273 274 274 275 275 275 275 276 276 276 276 277 277 277 277 277 277 277 278 278 278 278 278 277 277 277 277
270 270 269 269 268 268 268 268 268 268 267 266 266 266 266 267 267 267 267 267 267 267 267 267 267 267 267 267 267 268 267 266 266 266 265 265 265 265 265 266 266 267 267 267 268 269 269 269 269 269 269 269 270 271 271 272 272 272 273 273 274 274 275 275 274 275 275 276 276 276 276 277 277 276 276 277 277 277 277 277 277 277 277 277 276
270 269 269 268 268 267 267 268 267 267 266 266 266 266 266 267 267 267 266 266 266 266 266 267 267 267 267 267 267 267 267 266 266 266 266 266 266 265 265 265 266 266 266 267 267 268 268 268 268 269 269 269 270 270 270 270 271 272 272 273 273 274 274 274 274 274 275 275 276 276 276 276 276 276 276 276 276 277 277 277 277 277 276 276 276
269 268 268 267 267 267 267 267 266 266 265 265 265 266 266 267 267 266 266 266 266 265 266 266 267 267 267 266 266 266 267 267 267 267 266 266 266 266 266 266 266 266 266 266 267 267 268 268 268 268 269 269 270 270 270 270 271 271 272 272 273 273 273 274 274 274 274 275 275 275 276 276 276 276 276 275 276 276 276 276 276 276 276 276 276
268 268 267 266 266 266 267 266 266 265 265 265 265 265 266 266 266 266 265 265 265 265 265 266 266 266 267 266 266 267 267 267 267 267 267 267 266 266 266 266 266 266 266 266 266 267 267 268 268 268 269 269 269 269 269 269 270 270 270 271 272 272 273 273 273 273 273 274 274 274 275 275 275 275 275 275 275 275 275 276 275 275 275 275 275
268 267 266 266 266 266 266 265 265 265 265 265 265 265 266 266 266 266 265 265 265 265 265 266 266 266 266 266 266 267 267 267 267 267 267 267 267 267 266 266 266 266 266 267 267 267 268 268 268 268 269 269 269 269 269 269 269 269 269 270 271 271 272 272 272 272 272 273 273 273 274 274 275 275 275 275 275 275 275 275 275 275 275 275 275
267 266 266 265 265 265 265 265 264 264 265 265 265 265 265 266 265 265 265 265 265 265 265 266 266 266 266 266 266 266 267 267 267 267 266 267 267 267 267 267 266 266 266 267 267 267 268 268 268 269 269 269 268 269 269 269 269 269 269 269 270 270 271 271 271 271 272 272 272 273 273 273 274 275 275 274 274 275 274 275 275 274 274 274 274
Wind_Speed
18 20 23 25 26 26 25 22 18 14 11 9 6 5 5 7 7 6 5 5 9 13 14 17 21 25 27 30 35 39 41 42 43 44 44 43 42 41 41 40 39 40 38 34 32 33 33 34 35 34 31 30 31 30 30 31 33 32 31 30 29 29 28 27 29 30 30 30 29 29 27 27 26 24 23 23 23 23 23 24 23 22 23 23 24
18 21 23 25 28 29 29 28 24 21 18 15 11 10 9 8 8 8 7 6 5 7 11 14 17 23 27 28 29 32 38 41 42 44 45 45 46 44 43 42 42 43 42 38 35 36 37 37 38 37 33 32 32 30 29 30 32 32 33 32 31 31 31 31 33 33 33 33 31 29 28 27 27 25 25 25 24 24 24 24 24 24 24 24 24
20 22 24 25 28 29 31 31 30 28 25 22 17 12 11 10 11 11 11 9 7 6 8 11 13 17 21 27 30 30 34 38 39 42 44 45 47 47 45 45 45 45 45 41 39 40 40 39 40 39 36 35 34 32 31 31 32 32 34 34 33 33 32 33 35 35 35 34 31 29 29 28 27 27 28 26 25 26 25 25 26 26 26 25 25
21 23 25 26 28 29 31 32 32 32 31 29 26 21 17 16 15 15 14 13 11 9 9 9 11 13 14 20 27 29 32 35 36 39 41 41 44 46 47 46 46 46 46 45 43 42 42 41 41 40 38 37 36 34 33 33 33 32 34 36 36 36 35 35 36 36 36 36 33 30 27 25 25 28 29 28 27 27 27 26 27 27 27 26 26
20 22 24 26 28 29 29 30 30 31 32 32 31 29 25 22 20 17 16 16 14 13 11 10 9 11 13 15 19 21 24 28 31 34 38 40 42 44 45 47 48 47 48 47 46 44 43 43 43 41 40 39 38 37 35 35 34 33 34 36 38 39 39 38 38 37 38 38 37 31 24 23 26 27 27 28 29 29 28 28 28 28 29 29 28
18 20 23 25 27 29 29 29 30 30 30 30 29 29 28 27 25 22 19 17 17 15 13 12 10 8 8 9 10 11 13 17 20 24 30 34 39 42 44 47 48 48 49 48 47 46 44 43 44 43 43 42 41 39 38 38 37 35 35 36 37 39 40 40 40 39 38 38 38 35 29 26 27 27 25 25 28 30 30 29 30 30 31 31 30
16 19 22 24 26 28 28 29 30 30 29 28 27 27 27 27 27 26 24 22 19 18 16 13 12 10 9 7 6 6 8 10 13 16 20 23 28 34 38 42 44 45 48 49 48 47 45 45 45 44 44 45 43 42 41 41 40 38 37 36 36 37 40 43 43 41 40 40 39 38 35 28 25 26 27 25 25 28 30 31 31 32 32 32 31
15 18 21 22 23 25 26 27 28 29 30 29 29 28 27 26 27 27 26 25 24 21 19 16 14 13 12 11 9 8 8 9 11 13 16 17 20 26 29 33 36 38 43 47 50 49 48 47 47 46 45 45 45 44 44 43 42 40 39 38 37 37 39 42 44 44 43 44 42 41 38 32 26 25 26 26 25 25 28 30 32 33 33 34 33
16 16 18 20 21 21 22 24 25 27 29 30 30 30 29 27 26 26 25 25 26 25 23 20 17 15 14 14 12 11 11 10 11 12 14 15 16 19 22 26 29 32 35 39 44 47 49 49 48 47 47 47 46 45 45 44 44 43 42 42 42 40 39 40 43 45 45 45 44 43 42 37 31 26 24 25 26 25 25 29 32 33 34 35 34
16 16 15 17 19 20 20 21 24 26 27 29 30 31 31 29 28 27 26 25 25 25 25 23 21 19 17 16 15 14 14 13 13 12 13 15 15 15 17 20 23 26 29 30 34 39 44 47 48 49 49 48 48 47 46 46 45 44 44 44 44 42 40 40 42 44 44 44 45 44 44 43 38 31 28 27 27 27 26 25 28 32 34 35 34
17 17 16 16 17 19 19 21 23 26 27 29 30 32 32 32 32 31 29 27 25 25 25 24 23 22 21 20 18 17 16 15 14 14 14 15 16 15 15 17 19 22 25 26 29 32 35 40 44 48 50 51 51 50 49 48 47 45 44 44 44 44 43 42 42 43 43 43 44 45 46 47 46 42 39 36 32 32 29 25 25 26 27 28 29
17 18 17 17 18 18 18 20 22 24 27 28 30 32 32 33 33 33 32 31 29 26 25 24 24 23 22 22 21 20 19 17 16 15 15 15 16 16 16 17 18 20 22 24 27 29 31 33 37 42 47 51 53 53 50 48 47 46 45 44 44 45 45 44 44 45 45 44 44 46 46 47 49 49 47 43 39 36 33 30 28 25 24 24 24
18 18 17 17 18 18 18 18 19 21 23 24 27 30 31 32 32 31 31 31 32 31 28 25 24 23 23 22 22 22 21 19 17 16 15 16 16 17 18 18 18 19 19 21 23 25 28 29 32 36 41 46 51 53 52 49 48 48 46 45 45 45 46 47 46 46 46 45 44 45 46 47 49 49 49 47 44 39 35 33 30 27 26 25 24
18 17 17 17 17 18 18 18 18 19 20 20 22 25 27 29 30 30 29 28 28 30 31 30 27 24 23 23 23 22 22 21 20 18 16 16 17 17 18 19 20 20 20 21 20 21 24 27 29 31 34 39 44 49 52 51 51 50 49 47 47 45 45 46 48 46 46 46 45 45 46 47 47 48 49 49 48 44 41 38 33 28 25 25 27
17 17 17 18 18 17 17 18 18 20 21 21 22 22 22 24 25 26 26 25 24 25 27 30 31 29 25 23 23 23 23 22 21 20 19 18 17 17 18 18 20 21 22 23 23 22 23 24 27 29 30 32 37 43 48 52 53 53 51 49 46 44 44 45 46 46 46 46 47 47 46 46 46 47 48 49 50 48 46 43 40 35 28 25 27
17 16 17 19 19 17 17 19 18 18 21 22 23 24 23 23 22 21 21 21 21 21 21 23 26 30 30 28 25 23 23 23 23 22 21 20 19 18 17 17 18 20 21 23 24 25 24 24 25 27 29 29 31 35 41 47 52 54 54 51 48 47 47 47 46 45 46 47 47 48 48 48 47 46 46 47 49 49 47 46 45 43 37 31 28
18 17 17 18 19 19 18 18 18 18 19 21 23 24 24 25 24 23 22 20 20 20 21 21 21 23 26 29 30 27 25 24 24 24 23 22 21 20 19 18 18 18 19 20 22 24 25 26 26 27 28 29 29 31 34 39 45 50 52 52 52 52 51 49 46 43 45 46 47 48 49 49 48 46 46 46 46 47 47 47 46 47 44 39 36
21 20 20 18 18 20 18 18 19 17 16 19 21 22 23 24 24 24 25 24 23 22 21 23 23 21 21 22 26 29 29 27 25 25 24 24 23 21 21 20 19 18 19 19 20 22 23 25 27 29 29 29 30 31 33 36 40 44 48 50 54 55 53 51 49 46 44 44 45 47 49 49 48 47 46 46 45 45 45 46 46 46 45 44 42
23 23 24 22 22 21 18 19 21 18 16 17 19 21 23 23 23 24 26 25 26 25 24 24 24 24 23 21 21 23 27 29 29 28 26 25 24 23 23 23 22 22 22 20 19 20 22 23 25 27 29 30 30 31 33 35 38 41 44 46 51 54 55 55 54 52 49 46 45 46 48 49 49 48 47 46 45 45 45 45 45 45 45 45 44
23 24 25 27 27 25 21 22 22 19 18 18 19 21 22 21 22 25 27 27 28 27 27 26 25 25 26 27 24 21 22 26 30 31 30 26 25 25 25 26 26 26 26 25 22 20 21 23 24 24 26 28 29 31 32 33 36 38 41 43 46 50 55 57 59 58 55 51 48 47 47 48 48 48 48 47 46 46 45 45 45 46 46 46 44
23 24 25 27 29 27 25 24 23 21 21 20 19 21 22 22 22 23 23 25 28 28 27 26 26 26 27 29 30 28 26 27 29 31 32 30 29 28 27 28 28 28 28 27 26 24 23 23 24 25 25 26 27 29 30 31 34 37 39 42 44 47 51 54 58 60 59 57 54 52 51 49 48 48 48 48 48 47 46 46 46 47 47 47 46
24 26 27 28 28 28 27 26 24 23 23 21 20 21 23 24 23 22 21 21 22 25 26 27 27 26 26 26 28 30 31 31 31 31 31 32 33 35 33 30 29 29 29 28 28 27 25 24 25 25 25 26 27 28 28 29 32 35 37 40 43 46 49 51 53 56 58 59 59 57 56 53 50 49 49 49 49 49 48 48 48 48 49 49 48
27 28 30 30 30 29 29 28 26 26 24 22 21 22 24 25 23 23 22 21 21 22 24 28 28 27 26 26 28 30 31 31 31 30 31 32 36 39 39 36 33 30 29 29 28 27 26 26 25 25 25 25 26 27 28 29 30 33 36 38 40 42 46 49 51 53 54 55 57 58 59 57 54 51 51 51 50 50 50 50 50 50 50 50 50
30 31 33 34 33 32 31 29 28 27 25 23 23 25 26 26 24 23 23 23 23 22 23 25 26 27 28 29 30 30 31 31 28 27 30 35 39 40 40 40 37 33 30 28 27 27 26 26 26 25 25 24 24 25 26 28 30 32 33 36 38 39 41 44 47 50 52 53 53 55 57 58 55 53 52 52 52 51 51 51 51 51 51 51 51
32 34 36 36 35 33 31 29 27 26 26 25 25 27 27 26 25 24 24 24 23 23 23 24 26 28 30 31 31 31 32 31 27 27 30 38 43 41 38 39 39 35 30 27 26 27 27 27 26 26 25 25 24 23 23 26 28 30 32 33 35 37 39 42 43 45 48 50 52 54 56 57 56 54 54 53 53 53 53 52 52 52 53 53 52
33 36 38 36 33 30 28 27 27 27 27 28 28 29 29 28 26 25 25 24 24 23 23 24 26 28 30 31 32 33 33 30 29 31 34 41 45 41 36 35 36 34 32 29 28 27 27 28 28 27 27 26 26 25 24 25 25 27 30 32 33 34 36 39 42 43 44 46 49 51 54 55 55 55 56 57 56 55 54 54 54 54 53 53 53
37 37 36 33 30 27 27 28 29 30 30 31 32 31 29 28 26 26 25 25 24 24 23 24 26 28 29 30 32 33 32 31 34 36 39 44 47 41 34 32 32 33 34 34 32 29 28 28 29 28 28 27 27 27 27 27 27 27 27 29 31 33 34 36 38 41 42 44 45 47 49 52 53 54 55 56 56 56 55 55 55 54 53 53 53
36 34 32 31 30 29 29 30 31 32 32 32 32 32 32 32 30 27 26 25 25 25 25 25 26 27 29 31 32 33 34 35 38 40 43 46 47 40 33 32 33 34 35 36 34 32 30 29 29 29 29 29 29 28 28 28 29 29 29 29 29 31 33 35 36 38 39 41 43 45 46 48 50 51 53 53 54 55 54 54 54 54 53 52 53
30 31 31 31 32 31 32 33 32 32 32 32 33 34 34 33 30 28 27 26 26 26 26 26 27 28 30 31 33 35 38 40 41 42 44 46 43 37 34 35 36 36 36 36 35 33 32 31 30 29 29 29 29 29 29 28 29 30 31 32 32 32 32 33 35 36 37 39 41 44 45 46 47 48 49 51 52 53 53 54 54 54 53 52 52
29 32 34 33 33 32 32 31 31 31 31 32 34 33 30 28 28 29 29 28 27 27 28 29 29 28 29 32 35 37 41 43 43 43 44 42 38 35 35 37 38 38 38 37 35 33 32 31 30 29 29 29 30 29 28 27 28 29 30 32 34 35 35 35 35 36 37 38 40 42 44 45 45 46 47 48 50 51 53 54 54 54 54 54 53
33 35 35 34 33 31 29 29 30 31 33 34 34 34 32 30 30 31 31 30 29 30 32 31 31 32 34 36 37 38 41 43 43 43 41 36 34 34 35 38 40 40 40 37 35 33 32 31 30 28 28 28 29 29 27 26 27 28 29 31 33 35 37 38 38 38 38 39 39 40 42 43 44 44 45 46 48 50 52 53 54 54 55 55 55
35 35 34 33 31 28 27 29 31 33 34 36 38 38 37 36 35 34 33 33 32 33 34 34 35 38 40 40 39 38 39 40 40 38 35 33 33 33 35 39 42 42 41 37 34 33 31 30 29 28 28 27 27 27 26 26 26 26 27 28 31 34 35 37 39 40 41 41 40 39 40 42 43 44 44 45 45 47 49 51 53 53 54 55 56
35 34 33 30 27 25 27 30 32 34 36 37 37 37 36 35 35 34 34 34 34 34 35 36 38 40 41 40 39 38 38 37 35 32 31 32 32 34 37 42 44 43 39 36 33 32 30 29 27 27 27 26 25 24 23 23 24 25 25 27 29 32 33 35 37 39 40 42 42 41 40 41 42 44 44 45 45 46 47 49 50 51 52 53 54
34 32 30 27 26 27 30 34 36 36 36 36 36 35 34 33 32 32 31 31 32 33 35 37 39 41 42 42 41 39 38 35 30 27 28 30 32 35 40 44 43 41 37 33 31 30 29 27 26 25 24 24 24 22 21 21 22 23 23 24 27 30 32 34 35 36 37 39 40 41 41 41 42 43 44 45 46 47 47 47 48 49 50 52 53
34 31 28 26 27 31 35 38 38 35 35 37 39 38 37 36 36 36 37 37 38 40 40 41 42 43 43 43 40 36 33 29 25 25 28 32 34 38 41 42 40 37 34 31 29 28 27 27 25 23 23 23 23 20 19 19 20 21 22 22 25 28 30 32 34 35 35 36 37 38 39 40 40 41 43 44 45 46 46 47 47 48 49 51 52
34 31 28 28 31 34 36 37 36 35 36 40 42 38 36 37 37 38 40 41 41 42 42 42 42 40 38 35 31 27 25 25 27 31 34 35 36 38 39 38 36 34 32 30 28 26 26 25 24 22 21 22 22 20 19 18 18 20 20 22 24 27 29 31 32 33 34 35 36 37 38 39 39 39 40 42 42 42 43 43 43 45 47 50 52
33 30 29 32 35 37 37 37 36 35 37 41 40 36 34 35 37 38 38 36 37 39 41 40 36 33 30 27 24 23 25 30 34 36 36 35 35 37 38 37 35 33 31 28 26 25 24 23 22 20 20 21 22 22 20 18 18 18 19 21 25 27 28 30 31 31 31 32 33 35 36 37 37 37 37 37 38 38 38 38 39 40 43 47 50
33 31 33 35 37 39 41 40 37 35 38 40 36 33 34 37 38 37 35 36 38 39 38 34 32 32 33 31 29 29 31 32 32 31 31 33 35 37 37 36 34 32 29 26 25 24 23 21 19 19 19 21 23 24 21 18 17 18 19 21 24 26 28 29 29 29 29 30 31 31 32 33 33 33 33 32 33 35 36 37 36 37 41 44 47
33 32 35 37 39 40 39 37 36 38 39 36 32 33 36 38 37 36 36 38 39 36 34 33 34 35 34 32 30 29 28 28 28 29 31 35 37 37 36 34 31 29 27 25 24 23 22 20 19 20 21 22 23 23 20 18 17 18 19 21 23 24 26 28 28 28 28 28 28 28 28 27 27 27 29 29 29 31 34 36 35 36 39 42 45
36 37 40 41 40 36 33 35 39 38 34 32 34 37 38 36 36 37 37 36 34 33 33 34 34 32 30 27 26 27 28 30 31 33 34 35 35 34 32 30 27 25 24 23 22 21 21 20 20 21 21 20 21 21 19 16 17 18 19 21 22 23 24 26 26 26 26 26 26 26 24 23 22 22 24 26 26 27 30 33 33 35 38 40 42
41 43 43 41 36 32 33 37 37 33 33 37 40 38 36 36 37 36 34 32 31 32 33 31 29 28 27 27 30 32 33 32 31 32 32 31 30 29 27 25 23 22 22 21 20 19 19 20 19 19 19 18 18 18 17 15 16 17 18 20 21 22 23 24 24 23 23 23 22 21 19 18 18 19 20 21 21 22 26 29 30 31 34 36 39
43 41 38 35 33 34 37 37 35 36 40 41 37 35 36 36 34 31 30 30 31 30 29 27 27 29 31 33 35 34 32 29 29 28 28 27 26 24 22 21 20 19 19 18 17 17 18 19 18 18 19 17 15 16 15 14 15 16 17 19 19 19 19 21 21 20 19 19 17 16 15 14 15 16 15 16 16 17 22 27 27 26 29 33 36
40 36 34 34 35 37 38 38 40 41 39 34 32 34 35 33 30 29 30 29 28 27 27 29 32 33 34 34 32 30 28 26 25 23 22 23 22 20 19 18 17 17 17 17 17 17 18 18 17 18 18 15 14 15 15 13 14 15 16 18 18 15 14 17 19 17 15 15 13 12 12 11 11 12 12 13 13 14 20 25 24 22 26 31 34
35 34 34 35 37 39 41 43 42 36 31 30 32 34 32 29 28 29 28 27 27 28 31 33 33 32 31 29 28 26 24 22 20 20 21 21 20 19 18 17 17 17 17 17 17 17 16 16 16 17 16 13 13 15 14 12 12 13 14 16 18 16 11 12 14 14 13 13 11 9 8 8 8 9 10 11 12 13 19 24 21 18 23 29 32
33 34 36 38 41 42 43 40 34 30 30 33 32 29 29 28 28 27 25 26 28 30 31 31 30 29 29 28 26 23 21 20 20 21 21 20 19 19 19 18 17 17 17 16 15 14 15 15 16 17 15 13 13 15 13 11 11 11 12 14 17 16 11 8 10 11 10 11 12 10 8 7 8 8 8 9 10 13 19 23 20 18 21 25 28
33 36 40 43 42 40 37 33 31 32 34 34 29 27 27 27 25 24 25 28 29 30 31 31 30 29 28 27 25 23 22 22 22 20 19 18 18 17 17 17 17 17 16 15 14 14 14 13 13 14 13 12 14 14 13 11 10 10 11 12 13 14 11 9 9 10 9 9 11 11 11 10 9 8 7 8 10 13 17 19 19 19 19 20 23
35 41 45 43 39 35 33 31 33 35 34 31 28 27 26 24 24 26 29 30 30 31 33 33 31 30 28 26 25 25 24 23 22 20 19 18 17 16 16 16 16 16 16 15 15 16 15 13 13 14 13 14 15 13 12 12 11 9 9 10 11 10 9 9 10 11 10 9 9 10 11 11 10 9 8 8 11 14 15 16 18 19 18 16 17
41 45 43 38 35 34 32 33 35 35 32 30 28 27 25 24 27 30 32 31 30 32 34 34 32 29 28 26 25 25 24 23 22 20 19 18 17 16 16 16 15 15 16 16 16 16 15 13 13 14 15 15 15 12 11 13 13 12 10 10 10 9 8 9 11 13 12 11 10 10 10 11 12 11 10 11 14 16 15 14 16 18 17 15 14
46 44 38 35 34 32 32 34 35 33 31 29 28 26 25 25 29 32 32 31 32 33 35 34 31 29 27 26 25 25 24 23 22 21 20 18 17 16 16 16 15 14 16 16 16 17 17 15 14 14 15 17 17 15 13 14 14 14 13 13 11 10 9 9 10 12 13 13 13 12 11 12 13 14 15 16 17 18 16 16 18 19 18 16 16
46 40 36 34 33 31 32 34 34 32 30 29 28 27 25 26 29 32 32 33 34 35 34 33 31 28 27 26 25 24 24 23 23 22 21 20 18 17 16 15 14 14 15 16 17 17 18 17 16 15 16 16 16 16 15 15 14 12 12 13 13 12 11 10 9 10 12 13 13 13 13 13 14 16 18 19 20 19 19 18 20 21 21 19 18
42 36 36 35 32 32 33 34 33 32 29 28 28 27 26 26 29 31 33 34 34 34 32 31 29 28 27 26 25 24 23 23 22 21 21 22 21 19 16 14 12 12 13 14 15 16 16 16 15 16 16 14 13 14 14 13 11 10 9 10 12 13 12 11 10 10 12 13 14 14 14 14 14 17 20 21 21 21 21 21 21 21 21 21 20
Wind_Direction
28 27 28 27 30 32 32 33 33 34 29 19 9 344 308 295 289 282 299 292 245 229 227 230 237 246 249 247 243 240 239 239 240 240 238 236 235 233 230 228 225 223 223 223 224 224 223 223 223 224 224 225 228 230 231 231 230 230 229 226 222 219 217 216 217 217 214 211 210 213 216 219 221 222 223 224 225 227 228 228 228 225 223 223 228
28 29 29 29 31 33 35 35 35 36 32 27 20 8 352 331 324 321 321 322 289 259 242 231 232 239 247 253 255 252 249 247 245 243 241 239 237 234 232 230 227 226 226 225 225 225 224 223 222 224 225 224 226 227 227 229 228 229 228 224 222 222 220 217 218 217 215 215 214 212 214 217 222 224 225 226 227 231 232 231 230 228 226 226 229
30 30 31 31 32 33 36 36 37 38 37 34 29 17 3 348 342 341 335 329 322 308 279 256 242 237 243 251 252 251 248 247 246 245 243 239 235 233 232 230 228 228 229 228 228 226 225 224 223 224 226 225 225 223 222 224 226 227 228 226 222 219 220 221 223 222 218 217 215 214 215 216 219 223 224 226 229 232 233 231 229 230 229 228 231
31 31 31 33 34 34 36 36 37 39 39 38 35 30 23 11 358 348 344 339 329 324 319 296 265 245 237 243 245 245 245 244 243 243 243 240 237 234 234 235 234 232 232 231 229 227 224 224 225 226 227 227 226 223 220 221 224 225 226 227 223 219 216 219 225 226 222 217 211 211 214 217 221 223 222 225 229 231 234 233 231 232 232 231 233
29 28 27 30 32 33 35 36 36 37 37 37 36 34 31 26 18 5 353 345 338 332 328 322 294 260 243 241 240 242 245 246 245 243 244 243 242 241 241 242 240 237 237 235 232 228 224 223 225 228 230 229 228 225 223 224 225 225 224 225 225 223 220 219 222 224 225 223 218 212 208 213 221 224 223 225 228 230 232 233 233 233 234 234 234
26 24 23 24 26 29 31 32 33 34 34 33 32 32 30 28 26 20 10 357 347 340 334 331 325 304 278 263 251 247 245 245 245 246 246 246 247 247 244 243 241 239 240 240 237 233 228 225 225 229 231 231 229 227 225 225 225 224 225 226 226 226 225 222 222 223 224 225 225 222 219 221 224 221 217 219 224 228 230 231 232 233 235 236 236
26 23 22 22 21 22 23 23 25 26 28 28 27 26 25 25 23 22 19 13 4 353 343 333 327 328 325 324 311 282 257 242 242 246 248 250 250 249 247 246 244 242 242 243 241 237 234 231 227 227 230 231 231 228 226 225 226 226 226 228 227 226 225 225 225 225 223 223 224 224 224 226 228 223 218 217 217 220 225 227 229 231 234 236 237
29 24 22 20 19 18 18 17 17 18 19 20 20 20 19 19 18 17 17 16 13 7 359 349 338 332 327 326 323 310 292 268 256 251 250 253 253 254 256 255 252 248 246 245 243 240 237 234 229 226 227 230 231 230 228 227 227 227 227 228 228 226 226 226 227 227 226 225 222 221 221 219 223 227 226 226 224 218 219 222 226 229 232 235 237
29 24 20 19 18 17 16 15 14 14 15 15 15 15 14 13 12 11 11 12 11 8 6 3 356 347 336 327 320 313 305 291 278 269 261 258 255 252 257 262 262 259 254 250 247 245 242 238 233 228 227 229 230 231 229 227 227 227 227 227 227 226 227 228 229 229 230 230 225 221 219 215 215 220 221 224 227 223 219 221 223 224 227 231 234
25 21 16 13 14 15 13 12 13 12 11 11 11 12 10 8 6 5 5 6 7 6 4 2 360 356 350 341 330 320 309 297 286 278 268 262 258 250 247 254 262 264 263 259 256 253 249 244 238 233 232 231 230 231 230 227 227 228 229 229 229 228 228 228 230 231 232 232 230 226 221 215 212 211 210 211 219 223 224 227 226 224 226 229 229
18 16 12 7 6 9 9 7 7 7 7 7 7 8 9 7 4 2 360 358 359 2 2 0 358 356 354 351 346 338 327 315 300 288 277 266 260 254 247 245 251 258 263 263 262 261 258 253 247 240 235 232 231 232 233 232 230 227 228 230 231 230 230 229 230 232 232 232 233 230 226 222 219 216 214 212 215 220 223 226 227 227 230 232 232
12 11 10 6 2 4 5 2 2 2 1 2 3 4 5 5 4 2 359 355 353 353 356 357 356 354 352 350 348 346 343 336 325 312 298 283 270 261 254 248 245 249 255 260 262 261 260 258 255 249 241 236 235 235 235 236 234 228 227 229 232 232 231 231 230 230 231 231 233 233 230 228 226 225 222 219 218 221 224 227 228 227 226 228 231
11 7 5 4 2 360 358 359 0 359 357 357 358 359 360 1 2 2 1 358 353 350 349 350 351 351 351 349 347 345 343 341 338 330 319 307 294 279 268 259 250 246 247 253 259 263 262 259 257 255 250 244 241 239 236 236 235 231 227 227 230 232 232 231 231 231 232 232 234 235 234 231 229 229 227 225 222 222 224 228 229 230 231 230 229
7 7 5 1 357 353 352 353 355 355 353 351 352 353 354 355 357 357 359 358 355 352 349 347 347 347 347 347 346 343 341 340 337 334 327 319 312 302 291 279 267 258 249 245 247 254 261 262 260 258 256 252 248 243 237 234 235 235 232 228 228 232 234 233 232 231 232 233 234 236 237 236 234 231 229 228 226 223 223 225 225 225 230 235 233
0 3 5 0 356 351 346 344 346 350 350 347 348 350 348 349 351 352 353 354 353 351 348 346 345 344 344 343 342 341 340 338 335 332 329 322 316 311 304 296 285 274 265 254 245 244 250 258 261 261 259 257 252 247 241 237 237 238 237 233 230 231 232 231 231 231 232 233 233 235 237 239 238 234 231 230 230 229 228 228 226 220 214 219 229
356 356 357 358 357 352 341 336 336 340 343 342 343 345 346 345 345 345 347 349 347 347 345 344 342 340 340 340 339 338 336 335 334 331 328 324 319 314 308 302 295 288 280 271 259 249 246 248 254 259 260 258 255 250 246 242 241 241 240 236 231 228 228 230 232 233 233 233 234 235 236 238 239 238 236 233 232 232 231 230 230 226 216 209 216
354 351 348 348 352 351 342 332 328 329 334 337 338 340 342 341 340 339 341 343 342 342 341 340 339 337 335 336 336 337 336 333 332 331 328 325 320 316 311 304 299 294 288 282 273 263 253 248 248 252 256 257 255 252 249 246 244 244 243 240 235 231 230 232 234 233 233 234 233 234 234 236 238 238 237 236 234 233 232 230 231 232 227 219 216
355 352 346 341 342 345 342 332 325 322 324 330 333 334 336 336 334 334 336 338 339 338 337 335 336 335 331 330 331 333 336 335 332 330 327 325 321 317 313 308 303 295 286 280 278 273 265 256 250 249 251 254 254 253 250 248 246 246 245 244 242 237 232 233 233 231 229 230 232 234 234 234 235 235 236 236 234 233 233 231 230 232 232 229 227
354 353 349 344 339 337 335 332 326 318 316 324 326 326 331 332 330 330 332 333 335 336 335 331 331 332 330 328 325 324 328 332 333 331 328 324 322 319 314 309 303 296 289 283 279 275 271 266 259 253 250 250 251 252 252 250 247 246 246 245 244 241 236 235 235 233 230 228 228 232 234 234 233 233 233 234 233 233 232 231 230 231 231 231 232
351 348 346 344 340 334 329 330 328 320 315 319 319 319 325 329 328 328 329 330 332 332 331 330 329 329 327 329 329 324 321 324 327 329 329 326 322 318 315 311 305 298 294 290 284 276 271 268 266 262 257 253 250 250 251 251 250 248 247 246 245 242 238 238 238 237 234 230 227 227 229 231 232 231 231 232 232 232 231 230 229 230 231 231 231
342 339 338 338 338 334 327 324 322 317 314 315 315 316 321 324 324 324 324 327 330 332 330 328 328 327 326 328 329 327 325 325 323 323 325 325 325 320 315 312 307 302 297 292 288 283 276 269 265 263 262 260 257 254 251 250 251 251 250 249 248 245 241 240 240 238 236 233 231 229 228 228 229 230 230 231 231 231 230 229 229 229 231 230 229
333 332 332 332 333 331 326 320 316 314 314 314 315 315 318 321 321 320 317 316 320 324 323 321 321 320 320 321 320 318 319 322 323 321 318 319 323 323 319 313 309 305 299 293 289 286 282 276 269 263 260 259 260 261 259 255 251 250 250 249 250 248 245 243 240 238 237 235 233 233 232 231 229 228 229 230 230 230 229 229 229 229 230 231 230
331 330 330 330 329 326 323 319 314 313 315 315 314 314 315 316 316 315 315 313 313 314 314 315 317 316 313 311 309 309 311 315 319 319 316 316 319 321 320 316 312 308 301 294 290 287 285 280 275 269 264 259 257 258 260 260 257 253 251 250 250 249 248 246 243 240 239 237 234 234 235 235 233 230 229 229 229 230 230 230 230 230 230 231 231
329 329 328 327 325 323 321 317 314 314 315 315 314 314 314 314 312 311 311 311 311 311 311 313 313 311 309 306 304 305 307 311 314 311 310 316 319 318 317 316 313 310 303 295 290 287 285 282 278 274 269 265 259 255 255 258 260 259 257 254 252 252 251 250 248 245 242 239 236 235 235 235 233 230 228 228 227 227 228 228 229 229 230 231 231
326 327 325 324 323 322 320 319 318 317 317 317 316 316 314 312 310 309 308 307 306 306 307 308 308 307 306 305 303 302 303 307 306 300 305 317 321 319 316 313 312 311 307 298 290 286 284 282 279 276 273 268 263 257 252 252 257 260 261 259 256 255 254 253 252 250 248 244 240 238 237 236 233 230 229 229 229 228 227 227 227 227 229 230 230
325 324 322 321 321 322 322 323 322 320 318 317 316 314 312 309 307 307 306 305 304 303 301 302 305 307 306 305 303 302 301 300 296 293 301 315 320 319 314 310 311 312 310 304 296 289 285 281 279 277 275 271 266 259 252 247 249 255 260 260 259 256 254 254 253 253 252 249 246 244 242 240 236 234 233 233 233 232 230 228 227 226 226 227 228
322 320 320 322 324 324 324 322 320 317 315 313 312 310 308 305 303 303 303 303 302 303 303 303 306 308 307 306 304 302 298 293 290 291 298 309 315 315 311 310 312 312 310 306 301 294 287 282 279 276 274 272 269 264 258 251 245 245 251 256 258 257 255 253 252 252 253 252 251 249 247 244 241 238 237 236 234 233 231 229 228 227 225 224 225
322 324 326 327 326 324 322 319 317 315 313 311 310 307 304 302 299 297 299 300 300 301 302 303 305 307 307 306 303 299 293 288 288 290 296 305 311 311 309 311 313 311 309 307 302 297 292 284 278 276 273 272 271 267 264 260 253 247 244 246 250 253 255 254 252 251 251 251 251 251 250 248 245 243 241 239 236 233 231 230 228 227 224 223 223
327 331 331 327 323 320 318 317 317 316 316 316 314 311 306 302 299 296 295 295 296 299 301 302 303 304 306 306 302 296 290 287 286 289 295 303 307 305 304 307 311 311 310 307 301 297 294 288 281 277 274 272 271 269 267 266 262 256 250 246 245 246 248 251 252 252 250 250 250 250 250 250 248 247 245 242 239 235 232 231 229 227 224 222 221
331 330 325 320 318 317 317 318 319 320 321 322 321 319 314 306 302 301 299 296 296 300 301 300 299 300 303 305 302 295 291 288 286 289 296 301 300 297 297 303 309 311 310 307 301 295 293 289 285 280 276 273 270 269 269 267 266 264 259 253 249 247 246 246 248 249 249 249 249 248 249 249 249 249 248 246 243 239 236 234 233 230 226 223 221
330 326 322 319 318 318 318 320 323 324 326 327 327 324 319 313 308 306 303 298 296 299 299 295 292 294 299 304 303 298 293 289 287 291 296 296 291 289 293 303 310 311 310 306 300 295 293 290 287 283 278 275 271 270 270 268 266 264 263 260 256 251 249 248 247 248 248 249 248 248 248 248 248 248 248 247 245 242 239 237 236 235 232 229 225
328 325 322 320 320 319 321 324 325 326 327 326 323 320 316 312 309 306 303 298 296 296 295 290 289 294 301 306 306 301 294 289 288 290 291 287 283 284 294 306 310 310 308 304 298 296 294 290 287 283 279 276 273 271 271 270 267 264 263 263 261 258 254 252 250 249 249 250 250 249 248 247 246 246 246 246 245 243 241 240 239 237 236 234 232
324 322 320 320 321 322 324 326 325 325 325 323 321 319 315 311 309 306 302 298 296 294 291 290 294 300 305 306 305 301 294 288 285 284 282 279 279 284 296 307 310 308 305 300 296 296 294 292 289 285 281 279 276 273 271 271 270 268 265 264 264 262 260 258 255 254 253 253 253 252 251 249 248 246 244 244 243 242 241 240 240 239 237 236 235
321 320 318 319 320 319 320 321 321 322 323 323 321 317 313 311 310 308 305 302 299 297 296 297 300 303 303 303 302 297 291 285 281 278 277 276 278 286 299 307 307 305 302 297 295 295 294 293 291 287 283 280 278 277 275 274 273 272 269 266 264 264 263 261 259 258 257 257 256 255 254 253 251 249 246 244 243 242 241 240 239 239 238 237 235
318 317 317 318 318 318 318 318 318 318 318 320 320 315 309 307 306 306 306 305 304 302 301 301 301 301 302 304 301 293 286 282 281 283 285 283 284 291 300 305 304 302 299 297 296 295 294 294 292 289 286 283 281 282 280 278 277 275 272 269 265 264 263 262 261 259 258 258 258 257 256 255 253 251 250 248 247 245 244 242 241 240 239 237 236
315 314 315 316 318 318 316 313 313 311 313 319 322 317 311 310 309 308 307 305 303 302 301 301 303 304 305 304 299 290 284 284 289 294 293 289 290 294 300 303 303 301 299 298 297 295 294 293 292 291 291 290 290 289 285 282 280 278 275 270 265 263 263 262 261 259 257 256 256 255 255 255 254 253 252 252 251 249 247 245 243 241 240 238 237
312 310 312 315 318 318 316 313 310 307 312 319 320 315 312 311 312 312 310 306 304 303 304 304 306 308 307 303 298 293 291 291 294 295 293 290 291 295 299 302 302 301 299 298 297 296 295 293 294 296 297 297 294 291 290 289 285 279 274 268 264 262 262 262 261 259 257 255 254 253 253 254 254 254 253 253 253 251 249 247 244 242 240 237 236
313 312 315 317 318 318 316 312 307 307 313 317 314 311 312 313 312 312 310 306 305 307 308 306 305 306 306 305 303 303 302 301 299 295 291 290 293 296 298 300 301 300 298 297 298 298 296 295 297 296 292 288 287 289 294 295 288 279 271 265 263 262 262 261 259 258 256 254 254 253 253 253 254 254 254 253 253 252 251 247 244 242 238 235 234
315 317 319 319 318 317 316 313 311 312 314 314 312 313 315 313 311 310 307 306 307 309 308 305 304 307 309 308 308 307 305 302 295 290 290 292 294 296 297 299 299 298 297 297 298 298 297 297 295 290 288 287 288 292 297 295 287 278 270 266 263 262 260 258 256 256 256 255 254 254 254 253 255 256 255 252 251 251 251 249 245 240 236 234 232
320 320 319 317 316 316 316 318 318 316 315 315 316 316 314 311 310 309 308 309 310 308 307 307 309 311 311 308 305 303 302 299 295 293 294 295 296 298 299 299 298 296 296 296 296 296 296 296 295 294 295 296 295 297 298 293 284 276 269 265 262 259 258 257 255 255 256 256 256 256 255 254 258 262 259 252 246 244 247 249 245 240 237 234 231
318 315 315 314 314 314 316 318 317 315 316 317 317 314 311 310 311 310 311 312 311 310 312 313 314 312 307 303 301 302 304 303 301 301 300 299 300 301 300 299 298 297 297 296 295 298 300 302 304 304 303 301 298 298 296 289 281 272 265 260 255 254 258 259 257 256 256 257 257 256 254 257 262 266 263 254 244 238 241 246 245 242 240 236 230
315 314 315 316 316 317 318 317 314 314 316 316 314 310 310 312 313 312 313 314 314 315 314 312 309 306 303 303 304 306 308 307 305 305 303 301 302 301 299 299 299 299 299 299 301 305 307 310 313 312 310 310 306 302 298 290 281 271 262 255 249 251 260 260 256 255 256 258 259 256 256 260 264 265 262 254 245 233 232 240 245 245 240 236 231
317 318 320 321 321 320 319 317 315 316 316 314 312 311 313 316 315 314 315 316 316 314 309 306 306 307 308 309 311 312 312 310 309 309 307 305 305 305 303 303 304 306 307 307 308 308 307 308 306 304 308 312 307 303 306 301 288 275 263 254 245 247 261 261 253 251 254 257 257 257 256 258 260 263 260 253 245 228 223 233 243 244 238 234 229
319 319 320 321 320 319 317 317 317 317 315 313 314 315 316 316 315 316 318 318 314 309 308 310 313 315 317 319 319 317 316 315 316 317 314 311 311 312 310 309 309 308 307 305 304 304 302 301 298 298 306 310 302 305 315 314 299 284 271 259 247 241 251 263 255 246 247 249 246 244 247 246 251 258 256 251 246 224 216 227 236 237 234 232 227
318 318 319 319 318 317 317 317 318 316 314 315 318 318 317 316 317 320 319 314 311 312 315 319 321 323 324 324 323 321 323 325 324 321 317 313 312 309 307 307 306 304 303 303 304 302 299 297 296 301 311 313 305 309 320 319 308 293 279 268 256 246 244 259 258 248 245 245 240 234 232 230 237 246 243 241 236 216 215 223 227 227 230 230 226
316 317 319 319 318 318 318 318 316 314 315 319 321 319 317 317 318 317 314 312 315 321 326 328 328 327 326 327 328 329 331 331 327 323 319 316 311 306 302 302 302 301 302 301 296 290 289 294 299 304 308 306 303 312 323 321 312 300 287 279 270 257 246 246 251 249 246 244 237 230 224 218 219 222 223 225 215 206 215 223 221 223 229 227 222
316 319 320 320 320 321 321 317 314 315 319 322 321 319 319 316 311 311 314 317 321 325 328 330 330 329 328 330 332 333 332 330 329 328 326 323 319 312 305 299 296 295 293 289 285 284 286 290 294 294 295 298 302 313 323 315 306 304 294 285 280 270 251 236 239 246 248 243 235 229 222 215 212 208 209 214 205 202 213 218 214 218 226 222 217
317 320 321 320 320 321 319 315 315 318 322 322 321 321 320 312 307 312 317 321 323 324 325 327 329 329 329 331 331 331 330 330 330 332 332 330 329 324 315 306 301 300 300 297 295 297 299 296 294 295 301 308 309 312 313 305 303 308 303 289 281 276 258 236 236 248 254 252 246 241 230 220 213 203 200 208 206 204 210 212 207 213 221 218 213
319 321 321 321 320 319 316 315 316 319 322 322 322 323 319 310 308 315 320 322 323 324 323 325 327 327 328 328 328 328 331 332 331 331 331 332 333 332 326 317 312 313 312 306 300 301 306 309 310 311 314 315 311 307 303 300 303 310 309 298 286 276 266 249 241 246 254 256 254 250 241 231 220 204 200 209 210 206 207 206 203 207 213 212 208
320 321 320 320 320 317 314 316 318 320 322 322 322 323 320 310 309 316 321 323 324 324 323 323 325 325 326 326 326 329 331 331 330 331 332 332 333 335 332 325 315 309 306 300 294 295 299 302 303 306 310 312 309 305 302 300 302 307 309 302 291 279 269 260 246 238 242 248 251 247 239 233 223 209 203 208 211 209 207 205 203 204 209 211 210
321 320 319 320 320 316 315 318 319 320 322 321 320 322 318 309 310 317 321 322 324 323 322 323 323 323 323 324 325 328 329 329 330 332 333 332 331 331 333 333 324 311 301 294 291 293 295 294 293 294 297 300 299 296 297 301 303 301 300 301 297 289 280 269 253 237 233 236 238 237 234 229 223 215 211 211 211 209 208 209 208 205 206 209 212